Regional Weather Roundup
Issued by NWS

Home | Current Version | Previous Version | Graphics & Text | Print | Product List | Glossary On
Versions: 1 2 3 4 5 6 7 8 9 10 11 12 13 14 15 16 17 18 19 20 21 22 23 24 25 26 27 28 29 30 31 32 33 34 35 36 37 38 39 40 41 42 43 44 45 46 47 48 49 50
187
ASUS43 KMPX 231910
RWRMN
WEATHER ROUNDUP FOR MINNESOTA
NATIONAL WEATHER SERVICE TWIN CITIES/CHANHASSEN MN
200 PM CDT SAT JUL 23 2016


NOTE: "FAIR" INDICATES FEW OR NO CLOUDS BELOW 12,000 FEET WITH NO
SIGNIFICANT WEATHER AND/OR OBSTRUCTIONS TO VISIBILITY. N/A MEANS
CURRENT SKY AND/OR WEATHER CONDITIONS ARE NOT AVAILABLE.

MNZ060>063-068>070-232000-
   Twin Cities Metro

CITY           SKY/WX    TMP DP  RH WIND       PRES   REMARKS
TWIN CITIES    CLOUDY    74  71  91 SE17      29.86F
ST PAUL        LGT RAIN  73  71  93 SE15      29.87F
CRYSTAL        CLOUDY    74  69  85 E9        29.84F
BLAINE         LGT RAIN  73  73 100 E13       29.86F
LAKEVILLE      CLOUDY    72  72 100 SE10      29.87F
EDEN PRAIRIE   CLOUDY    75  71  87 E13       29.85F
LAKEVILLE      CLOUDY    72  72 100 SE10      29.87F
SOUTH ST PAUL  CLOUDY    72  71  97 SE6       29.88F
LAKE ELMO      CLOUDY    72  70  94 E12G25    29.90F
$$
MNZ001>005-007-008-013>017-022>024-027-028-232000-
   Northwest Minnesota

CITY           SKY/WX    TMP DP  RH WIND       PRES   REMARKS
BEMIDJI        CLOUDY    77  64  65 SE14G21   29.85F
HALLOCK        HVY RAIN  66  64  94 E17G23    29.74F
ROSEAU         CLOUDY    70  64  83 NE9       29.81F
WARROAD        LGT RAIN  72  68  88 NE12      29.83F
THIEF RVR FALL TSTM      66  64  94 N17G38    29.80  FOG
CROOKSTON      RAIN      64  64 100 NE17      29.76F
FOSSTON        CLOUDY    75  66  73 S9        29.85R
DETROIT LAKES  TSTM      73  68  83 SE5       29.84S
MOORHEAD       CLOUDY    75  70  83 E5        29.80F
PARK RAPIDS    LGT RAIN  74  69  85 SE14      29.84S
MAHNOMEN       CLOUDY    74  69  84 SW6       29.84S
$$
MNZ006-009>011-018-025>026-232000-
   North Central Minnesota

CITY           SKY/WX    TMP DP  RH WIND       PRES   REMARKS
BAUDETTE       CLOUDY    76  64  66 E9        29.85S
FLAG ISLAND    DRIZZLE   70  64  83 NE12      29.86S
INTL FALLS     CLOUDY    76  64  66 SE7       29.90R
WASKISH        CLOUDY    81  66  61 SE9G23    29.84F
BIG FORK       CLOUDY    79  66  65 SE7       29.89F
LONGVILLE      CLOUDY    73  66  78 CALM      29.86F
GRAND RAPIDS   CLOUDY    74  64  71 SE3       29.89F
CRANE LAKE     CLOUDY    70  66  88 CALM      29.95R
ORR            CLOUDY    73  61  64 SE6       29.90F
COOK           CLOUDY    75  63  64 E3        29.93F
WALKER         FAIR      74  66  76 SE8       29.86S
$$
MNZ012-019>021-037-232000-
   Northeast Minnesota

CITY           SKY/WX    TMP DP  RH WIND       PRES   REMARKS
DULUTH         CLOUDY    73  62  68 E10       29.92F
ELY            CLOUDY    72  57  60 SE7       29.97S
HIBBING        CLOUDY    73  61  65 E6        29.91F
EVELETH        CLOUDY    73  57  57 E5        29.94F
DULUTH HARBOR  CLOUDY    66  63  88 NE18      29.91F
TWO HARBORS    CLOUDY    73  64  73 NE8       29.92F
SILVER BAY     CLOUDY    68  61  77 NE6       29.94F
GRAND MARAIS     N/A     66  56  70 NE8       29.98F
G MARAIS ARPRT CLOUDY    66  55  68 E3        30.04F
$$
MNZ029>031-032-039>041-046>048-054>057-064-232000-
   West Central Minnesota

CITY           SKY/WX    TMP DP  RH WIND       PRES   REMARKS
FERGUS FALLS   CLOUDY    75  66  73 SE3       29.80F
WHEATON        CLOUDY    81  72  74 SE6       29.80R
MORRIS         PTSUNNY   75  70  83 SE12G18   29.80R
ALEXANDRIA     CLOUDY    72  68  87 SE15      29.85F
ELBOW LAKE     CLOUDY    75  69  79 E6        29.81R
WADENA         CLOUDY    72  68  88 SE14      29.83F
GLENWOOD       CLOUDY    72  70  94 E14       29.85F
APPLETON       PTSUNNY   81  72  74 SE9       29.79R
BENSON         CLOUDY    77  70  78 SE7       29.82R
ORTONVILLE     CLOUDY    79  72  78 SE8       29.78S
MADISON        MOSUNNY   82  72  69 SE10G18   29.78S
WILLMAR        CLOUDY    72  72 100 E10G16    29.86R
$$
MNZ033>034-036-042>043-049>051-058-059-232000-
   Central Minnesota

CITY           SKY/WX    TMP DP  RH WIND       PRES   REMARKS
ST CLOUD       RAIN      69  69 100 E8        29.89F FOG
SAUK CENTRE    TSTM      69  68  95 E5        29.89R
PAYNESVILLE    TSTM      69  69 100 SE7       29.89R
AITKIN         MIX PCPN  75  66  73 SE12G18   29.85F
PINE RIVER     DRIZZLE   72  70  94 W3        29.91R
BRAINERD       RAIN      70  69  97 SW12      29.87R FOG
STAPLES        LGT RAIN  70  66  88 SE7       29.86S
LONG PRAIRIE   TSTM      68  68 100 NE3       29.89R
LITTLE FALLS   TSTM      68  66  94 S6        29.89R
LITCHFIELD     TSTM      70  70 100 NE8       29.89R VSB 3/4
BUFFALO        CLOUDY    71  68  90 N5        29.88F
MAPLE LAKE     TSTM      71  70  96 N7        29.90R
HUTCHINSON     CLOUDY    74  73  96 E18       29.83F THUNDER
$$
MNZ037-044-045-052-053-232000-
   East Central Minnesota

CITY           SKY/WX    TMP DP  RH WIND       PRES   REMARKS
PRINCETON      RAIN      72  70  94 SW7       29.91R
MORA           RAIN      68  63  83 CALM      29.89F
CAMBRIDGE      LGT RAIN  73  66  78 S8        29.88S
RUSH CITY      CLOUDY    70  68  93 SE8       29.87F
MOOSE LAKE     CLOUDY    75  68  78 CALM      29.86F
HINCKLEY       LGT RAIN  73  68  83 S14       29.88F
CLOQUET        CLOUDY    70  59  68 E8        29.91F
MCGREGOR       CLOUDY    73  68  83 E9        29.87F
$$
MNZ071>073-080-081-089-090-097-098-232000-
   Southwest Minnesota

CITY           SKY/WX    TMP DP  RH WIND       PRES   REMARKS
MONTEVIDEO     CLOUDY    79  73  83 SE12      29.82S
GRANITE FALLS  CLOUDY    80  74  82 E10       29.82F
CANBY          CLOUDY    83  76  79 E10       29.79F HX  92
MARSHALL       PTSUNNY   86  75  69 S10       29.79F HX  95
REDWOOD FALLS  CLOUDY    81  75  82 E10       29.81F
OLIVIA         CLOUDY    73  72  94 E8        29.83S
PIPESTONE      CLOUDY    86  73  66 S12       29.82S HX  93
WINDOM         MOSUNNY   82  73  74 S10G18    29.83F
WORTHINGTON    MOSUNNY   85  76  74 S12       29.83S HX  94
JACKSON        PTSUNNY   81  72  74 S14G20    29.85S
TRACY          CLOUDY    85  77  76 S10G16    29.81F HX  96
SLAYTON        MOSUNNY   85  74  68 S10       29.84F HX  93
$$
MNZ065>067-074>077-082>085-091>093-232000-
   South Central Minnesota

CITY           SKY/WX    TMP DP  RH WIND       PRES   REMARKS
MANKATO        CLOUDY    77  72  83 SE21      29.82F
NEW ULM        PTSUNNY   79  73  83 SE10      29.83S
ST JAMES       CLOUDY    75  70  83 SE9       29.83S
FAIRMONT       PTSUNNY   79  54  41 SE14      29.82S
GLENCOE        CLOUDY    75  74  98 E14       29.84S
FARIBAULT      CLOUDY    72  72 100 SE16G25   29.85F
OWATONNA       LGT RAIN  73  70  88 SE17G23   29.85F
WASECA         CLOUDY    72  70  94 SE21G29   29.84R
ALBERT LEA     RAIN      73  72  94 E13G23    29.87F
$$
MNZ078>079-086>088-094>096-232000-
   Southeast Minnesota

CITY           SKY/WX    TMP DP  RH WIND       PRES   REMARKS
ROCHESTER      LGT RAIN  72  71  97 SE17      29.94F
RED WING       LGT RAIN  73  70  88 SE16G26   29.90F
STANTON        CLOUDY    73  68  83 SE15G26   29.85F
DODGE CENTER   RAIN     N/A N/A N/A SE14      29.91F
WINONA         RAIN      73  72  94 CALM      29.98R
AUSTIN         CLOUDY    72  70  94 E13       29.89F
PRESTON        RAIN      69  67  94 SE8       30.00R
$$
ABBREVIATIONS USED IN REMARKS
   TC - TEMPERATURES IN CELSIUS
  WCI - WIND CHILL INDEX
   HX - HEAT INDEX
  VSB - VISIBILITY
$$




USA.gov is the U.S. government's official web portal to all federal, state and local government web resources and services.